Location: Saluda
(35.2377°N, 82.3468°W)
Time: 04:21:18
(UTC+00:00)

Vanguard 2 Rocket - Pass Details

Date: 06 October 2022
Orbit: 555 x 3321 km, 32.9° (Epoch: 05 December)

Event Time Altitude Azimuth Distance (km) Brightness Sun altitude
Rises 05:11:40 0° 263° (W) 6,733 11.3 -59.8°
Enters shadow 05:15:35 - 263° (W) 5,675 10.9 -59.9°
Reaches altitude 10° 05:16:42 10° 263° (W) 5,366 - -59.9°
Maximum altitude 05:31:13 79° 180° (S) 1,731 - -59.7°
Drops below altitude 10° 05:39:06 10° 94° (E) 3,079 - -59.5°
Sets 05:41:15 0° 93° (E) 3,789 - -59.4°
